COSMOS 1275 DEB, 12666

Orbit data source: Space-Track

COSMOS 1275 DEB, 12666 is space debris in LEO originally from a launch on Thu, 04 Jun 1981 UTC launched from the Plesetsk Missile And Space Complex (PKMTR). Debris objects in space refer to the collection of defunct objects orbiting the Earth. Examples of debris include non-operational satellites, rocket bodies, and fragments generated from explosions, collisions, or faulty payload assembly.

Loading next visibility...
Identifier
12666, 1981-053W
Orbit
LEO
Country
Flag of CISCIS
Related business
Manufacturer
Unknown
Mission
Spacecraft
Bus & Motor
Unknown
Mass
Unknown
Launch date (UTC)
1981-06-04 (45 years ago)
Launch vehicle
Unknown
Launch site
Plesetsk Missile And Space Complex (PKMTR)
Object type
Payload
Rocket body
Debris
Shape & HBR
Unknown shape, 0.2 m
Radar Cross Section
Medium (>0.1 m² and <1 m²)

Expand to show TLE details & history
Last TLE update: 2 days ago

TLE from 2 days ago
0 COSMOS 1275 DEB
1 12666U 81053W   26171.37945676  .00000284  00000-0  28123-3 0  9995
2 12666  82.8715 218.3313 0066665 242.7600 127.4793 13.74435245243522
Epoch: 2026-06-20T09:06Z
TLE epoch observation values (Epoch: 2026-06-20T09:06:25.064Z)
Latitude
10.70764°
Longitude
174.47999°
Altitude
1,015.909 km
Speed
7.33 km/s
True Right ascension
14h 38m 43s
True Declination
10° 38' 50"
Sunlit
Object was in full shadow at epoch
Visualization orbit readout
Latitude
Unknown
Longitude
Unknown
Altitude
Unknown
Speed
Unknown
Apparent Right ascension
Unknown
Apparent Declination
Unknown
Sunlit
N/A
Visualization observer readout
Local Sidereal Time
09:47:36
Azimuth
Unknown
Elevation
Unknown
Doppler factor
Unknown
Orbital elements
Apogee altitude
1,029.902 km
Perigee altitude
931.784 km
Semi-major axis
7,358.98 km
Eccentricity
0.00667
Inclination
82.8715°
RAAN
218.3313°
Arg. of periapsis
242.76°
True anomaly
128.08246°
Mean anomaly
127.4793°
Eccentric anomaly
127.78119°
Mean motion
3.43809 °/min
Orbital period
104.71 mins
BSTAR
0.00028123
Loading maneuver chart data...
Computing Atmospheric mass density...
Loading historical data...
Loading historical data...
Loading historical data...
Loading historical data...
Loading historical data...
Loading historical data...
Loading historical data...

Documentation

Showing up to 5 results
|